Theta_e
322 317 313 317 321 323 317 316 315 321 323 321 320 322 332 334 331 331 331 331 332 333 337 341 343 345 346 348 352 355 356 361 355 356 358 361 357 360 358 362 364 367 366 365
316 313 319 321 320 322 319 318 318 321 323 321 319 319 330 335 334 332 331 331 332 333 336 340 342 344 344 349 352 355 361 361 361 360 360 352 353 354 363 360 367 368 367 368
311 315 320 319 317 316 318 315 316 316 321 321 319 317 320 324 334 335 334 335 334 335 335 337 341 343 346 350 352 356 358 364 363 369 364 358 352 365 360 362 359 355 360 364
312 317 316 316 315 317 313 319 318 317 315 310 318 308 317 318 321 332 334 334 334 336 338 339 342 341 344 350 356 359 359 365 364 367 363 360 355 353 357 359 360 356 362 366
309 311 312 313 314 318 314 319 317 317 314 313 313 309 317 323 318 327 332 334 336 339 340 339 342 344 345 350 352 358 361 365 364 365 367 361 360 356 357 355 361 360 360 367
311 315 314 313 315 316 317 315 315 315 313 306 311 310 311 318 323 323 327 331 336 338 341 343 345 346 347 350 352 354 359 363 366 365 368 363 360 359 353 358 354 354 357 362
309 310 313 314 310 313 312 309 303 302 303 303 312 310 312 320 323 323 325 331 336 338 342 342 344 345 347 349 352 354 360 361 365 365 364 367 367 364 359 360 354 354 352 355
304 303 310 313 310 308 308 309 303 298 299 303 312 307 313 323 323 327 331 334 336 336 342 342 346 346 348 349 352 355 361 363 364 366 365 368 368 361 360 360 359 353 356 355
305 304 313 313 314 312 308 304 310 304 306 302 305 310 319 321 320 320 323 327 327 333 338 343 344 347 348 350 352 356 362 365 366 367 367 366 367 364 362 364 367 359 358 358
311 304 311 312 314 313 310 311 303 305 298 297 302 306 307 319 318 322 321 322 329 330 334 343 344 346 350 350 355 358 364 365 366 367 366 365 365 366 367 365 363 361 355 358
313 309 308 312 309 307 308 306 306 306 304 300 299 303 314 320 321 321 322 326 329 330 332 340 345 347 351 351 354 357 363 366 366 364 364 363 363 364 365 361 362 362 359 356
315 311 306 308 314 315 313 308 308 303 301 303 303 303 315 319 320 322 324 325 329 333 333 336 345 347 350 350 353 355 362 364 364 362 363 362 363 363 362 361 361 360 356 356
315 309 302 304 310 314 311 313 313 309 307 305 300 303 317 318 319 323 323 324 334 336 336 339 340 346 350 351 353 353 360 361 362 361 361 361 361 362 361 360 357 353 351 349
318 309 304 300 304 309 307 310 312 311 304 304 304 307 312 314 316 323 326 331 331 335 339 341 341 348 349 353 356 357 358 362 362 360 359 360 360 360 359 356 352 349 348 345
313 306 308 309 310 310 309 308 310 309 309 306 308 309 313 315 316 322 325 328 330 333 334 337 339 343 352 355 358 359 359 361 361 361 360 362 363 362 355 352 349 347 345 344
314 307 309 305 308 309 307 308 308 309 310 309 310 310 317 318 321 323 324 328 333 335 336 340 342 348 351 355 360 360 360 361 363 363 360 364 361 358 352 349 347 346 343 339
308 306 304 299 306 307 303 308 309 310 312 310 306 312 319 317 320 323 327 332 335 338 340 341 340 342 348 351 359 361 362 365 363 363 362 362 358 354 351 349 345 342 337 335
306 306 304 300 304 296 307 314 313 311 312 314 315 318 321 321 324 332 339 340 341 343 344 347 344 342 344 349 356 363 362 366 364 363 362 358 354 350 347 345 341 338 334 332
309 306 302 298 299 305 308 311 312 312 312 319 317 322 315 318 321 331 334 339 346 347 348 345 343 344 350 350 358 361 359 364 364 362 357 354 351 345 343 339 338 336 332 331
314 312 306 304 300 298 309 314 318 318 307 323 326 321 317 314 311 322 330 329 345 347 351 353 352 346 351 365 360 360 359 361 360 359 355 353 349 343 341 340 336 335 332 330
307 310 306 305 303 306 314 316 319 306 311 325 326 326 322 320 327 331 332 337 347 346 348 352 356 354 355 359 361 359 360 358 360 355 349 347 348 344 343 340 336 331 327 328
307 305 304 306 305 302 322 320 312 321 325 325 326 327 324 325 326 329 331 334 347 345 346 349 351 354 356 360 364 360 359 362 355 346 346 346 344 341 339 337 333 328 326 324
304 309 307 308 308 320 319 320 321 322 323 325 325 327 325 323 326 327 329 330 341 346 346 347 346 348 354 355 360 361 354 349 345 344 344 343 340 339 336 330 327 323 325 321
311 315 310 312 313 315 316 318 320 320 319 322 325 325 322 320 321 322 324 325 331 346 345 345 345 344 345 348 349 348 345 344 343 343 341 339 336 332 331 328 326 323 324 321
309 312 311 310 314 315 315 317 319 317 317 319 321 324 320 319 319 319 322 328 329 339 345 346 344 344 344 345 343 343 343 344 343 342 338 334 331 330 331 329 325 325 326 323
310 309 306 306 313 313 316 315 316 315 314 315 315 316 321 318 320 319 321 327 331 333 341 346 346 345 343 343 341 342 342 344 340 336 333 333 330 330 331 330 329 312 317 311
Wind_Speed
17 16 15 22 9 22 28 30 33 32 6 5 7 2 22 20 17 17 17 17 17 17 17 17 15 16 12 14 14 15 12 12 8 7 5 5 5 4 4 4 7 4 4 3
18 19 20 21 20 25 20 25 30 4 8 7 8 8 14 20 17 18 18 18 18 18 18 16 17 16 15 15 13 11 10 14 11 10 7 2 3 4 3 3 5 3 4 4
21 21 21 21 18 22 16 12 13 12 8 10 10 2 12 4 9 17 17 18 17 18 19 18 18 16 15 12 15 14 11 12 10 7 8 6 5 3 3 4 3 2 1 3
20 20 23 23 19 16 16 16 15 5 11 11 11 14 9 17 18 15 17 19 18 18 19 20 19 19 17 15 12 14 14 11 10 9 9 10 8 5 5 4 4 4 4 4
16 20 21 17 20 15 17 17 19 20 9 16 18 15 17 18 22 30 14 17 20 18 18 22 21 19 19 18 15 14 15 13 11 11 9 8 8 6 7 6 8 5 5 3
18 21 13 12 15 12 16 20 20 18 14 13 17 18 7 9 16 10 5 24 19 23 20 18 21 20 18 19 18 16 17 15 13 13 10 11 8 5 6 6 6 6 6 5
13 16 19 9 16 18 16 15 12 14 13 13 19 17 14 15 11 17 30 31 23 21 21 18 22 19 19 19 20 18 19 16 15 15 13 11 9 7 8 7 8 7 6 6
14 13 20 16 18 17 18 16 12 15 14 16 18 17 7 11 4 18 35 26 21 19 22 22 18 18 19 18 19 17 19 17 17 15 14 10 10 7 8 9 4 5 4 6
15 17 17 7 10 11 13 16 19 22 19 14 15 21 9 15 21 41 3 16 13 17 20 23 20 18 19 18 19 18 18 17 17 16 13 12 10 10 8 9 5 6 8 7
13 14 14 14 5 9 16 16 15 12 17 17 15 19 15 12 14 11 8 8 14 8 11 22 21 18 18 18 17 17 20 19 18 16 14 13 13 11 6 6 6 6 7 7
13 13 13 13 14 10 13 14 14 17 14 12 11 12 15 12 4 8 6 13 9 9 6 12 19 19 17 19 19 19 19 18 17 16 16 15 13 13 9 10 8 6 8 9
14 10 11 18 15 11 16 16 16 11 17 15 15 15 18 7 3 4 6 7 10 10 4 10 18 19 18 18 17 19 19 17 17 17 16 15 14 13 11 8 9 9 9 7
13 9 11 11 6 19 12 15 20 19 16 14 13 12 12 9 7 8 7 4 10 9 6 4 10 19 18 18 16 17 18 17 17 17 17 15 15 13 12 11 11 11 9 6
4 13 17 14 21 14 10 16 18 20 10 13 14 15 15 15 14 12 8 10 8 6 5 6 7 12 17 18 16 16 17 18 17 17 16 14 15 14 13 11 11 12 10 9
9 13 15 17 17 18 20 17 21 20 18 16 19 18 16 16 16 8 10 9 9 7 7 9 9 9 14 14 15 15 17 17 17 15 15 14 14 14 13 12 12 12 11 9
14 13 13 15 18 19 18 17 19 21 23 23 20 20 16 13 12 6 5 7 10 10 10 12 11 9 14 15 12 14 14 16 15 14 16 15 16 15 15 14 12 12 11 9
16 13 12 14 17 17 15 16 17 18 17 21 18 20 17 5 6 4 4 5 6 8 9 9 14 10 10 16 13 13 12 13 15 15 15 16 16 15 15 14 13 12 11 10
17 15 12 13 15 17 16 14 15 19 19 14 16 14 26 20 8 10 15 12 9 8 9 8 10 13 13 17 18 13 14 11 14 16 15 16 16 16 15 14 14 13 12 11
15 14 12 12 13 17 20 15 13 12 11 15 16 19 22 26 29 14 21 22 12 14 13 11 8 10 12 14 16 16 15 13 14 15 17 17 17 16 15 15 15 13 12 10
8 11 11 11 15 18 18 19 12 8 12 13 16 14 9 17 9 10 16 12 14 15 16 18 18 10 6 5 16 17 17 15 14 13 15 15 15 16 14 13 12 10 9 9
9 9 11 12 14 14 12 15 13 7 5 9 11 11 10 4 6 7 10 6 9 11 14 15 18 14 5 7 15 15 14 15 15 14 14 13 13 12 11 12 10 11 10 9
10 12 12 13 15 17 12 11 10 7 7 10 8 8 7 9 14 12 11 10 9 9 11 13 12 14 16 7 10 13 12 11 13 15 14 13 13 11 10 13 12 12 9 10
12 12 11 14 14 14 12 14 14 18 13 7 9 2 4 8 8 9 10 16 7 8 8 8 9 10 9 12 9 6 6 14 15 14 13 13 13 11 10 10 11 10 9 9
16 16 12 14 15 18 18 17 14 16 16 14 9 6 9 11 12 13 8 13 13 5 6 5 7 7 6 5 5 6 8 11 14 13 11 12 13 11 10 8 7 9 9 9
13 15 15 17 16 17 18 16 11 11 14 15 17 7 8 11 13 12 12 9 12 6 2 3 4 6 7 3 2 6 10 11 11 10 12 11 9 11 10 9 9 8 9 10
14 17 13 14 15 16 14 16 19 17 14 15 16 16 13 12 13 11 12 10 8 12 6 1 2 6 5 5 4 7 8 10 10 9 10 10 10 8 9 10 8 6 5 8
Wind_Direction
243 244 251 261 284 142 166 185 226 253 135 228 319 238 165 173 182 184 184 188 185 193 187 176 195 178 202 159 160 151 161 158 140 137 162 210 224 233 225 147 114 147 140 195
249 248 246 268 277 160 174 230 233 45 16 238 273 291 128 166 189 190 191 186 188 189 183 186 178 183 192 164 164 163 171 163 172 156 185 78 334 232 98 126 112 119 171 155
251 250 251 245 282 278 287 288 304 331 335 287 321 216 193 8 219 200 190 189 192 186 185 181 178 193 184 177 167 162 184 163 166 174 138 131 241 149 102 122 117 99 289 258
250 262 264 275 244 279 287 296 301 0 301 293 281 288 101 157 255 193 203 186 190 193 187 173 180 190 186 171 166 163 172 169 171 196 160 174 194 170 188 163 148 158 221 221
263 246 261 268 272 285 287 286 292 303 277 297 290 286 140 129 105 262 211 200 191 185 196 175 180 185 189 172 174 172 172 174 179 198 172 181 214 176 146 167 142 180 215 160
259 272 298 284 282 295 282 280 289 291 284 276 276 278 188 151 175 142 198 241 225 185 189 181 178 179 190 174 173 178 174 179 183 189 197 182 197 176 171 162 157 185 186 185
246 250 267 264 286 278 275 264 262 254 255 255 257 254 268 152 174 180 193 219 223 186 175 189 178 180 182 179 174 179 174 180 184 185 195 191 202 178 160 164 193 170 185 169
286 243 220 203 227 259 272 257 255 260 260 269 274 272 343 134 12 295 192 208 173 180 171 179 185 179 175 181 172 174 170 176 181 183 188 207 198 190 179 189 184 181 148 146
312 288 308 251 216 216 252 259 281 287 285 273 283 292 202 94 72 294 310 162 164 174 168 174 186 180 172 178 172 169 168 174 179 185 184 198 194 196 198 174 192 138 130 137
296 297 297 310 277 243 273 291 288 268 262 271 287 293 300 145 189 236 194 118 131 143 165 171 177 185 171 176 166 169 165 175 178 184 187 191 193 197 183 154 193 140 141 144
301 291 290 273 250 270 250 224 244 270 281 291 286 257 249 43 80 347 64 65 98 134 168 181 175 179 172 173 167 169 168 171 174 185 186 190 190 189 184 173 171 137 134 133
339 321 300 300 309 271 232 259 272 247 237 260 279 291 302 6 315 116 294 67 78 19 165 194 174 175 171 177 173 172 169 172 177 185 183 189 184 185 189 148 148 145 132 130
350 310 318 296 33 349 354 348 332 284 294 288 283 273 289 342 29 17 358 22 108 99 333 238 201 174 176 180 180 176 169 175 183 187 180 184 181 181 171 148 139 133 132 134
310 277 280 287 309 319 317 304 305 315 290 289 281 295 314 331 355 17 66 71 55 51 11 291 282 179 179 180 177 174 172 175 183 186 180 184 180 176 155 147 140 143 146 154
268 273 277 296 310 309 302 294 287 288 294 297 301 306 306 315 329 47 38 22 27 13 350 314 229 251 172 171 167 171 174 177 183 187 179 175 172 152 147 145 144 146 147 157
278 283 298 292 283 270 269 269 272 282 286 285 280 281 284 286 291 60 9 27 24 359 347 323 305 221 174 167 167 173 177 177 182 185 179 166 150 151 144 141 146 147 152 155
287 288 291 288 294 297 286 282 274 281 257 264 275 279 327 255 288 352 326 69 41 346 334 319 306 270 206 174 172 171 179 174 181 177 173 158 153 144 147 149 150 152 155 158
262 262 269 272 280 274 277 288 309 304 297 288 295 342 23 352 315 57 52 41 11 345 328 304 293 285 246 186 172 161 177 184 180 173 157 155 147 147 151 153 156 162 163 165
230 252 261 268 267 276 270 267 281 343 328 331 341 45 25 8 359 43 28 7 22 345 329 312 273 275 297 183 159 161 171 184 173 169 160 160 153 148 155 165 168 164 161 161
238 233 238 247 266 278 298 310 332 349 295 15 41 72 89 62 358 334 28 359 358 349 339 347 328 298 269 141 147 158 169 170 174 162 166 156 154 154 168 165 160 158 153 156
275 235 255 275 265 262 266 286 314 275 355 2 35 40 121 165 290 341 29 13 45 359 338 340 335 340 284 147 148 163 169 170 166 150 156 154 148 145 166 158 162 154 155 159
270 276 275 270 261 267 16 335 312 359 343 360 8 46 347 325 319 3 357 356 59 11 358 351 353 353 357 6 138 162 164 152 132 138 153 151 150 158 159 160 155 156 155 162
261 257 272 279 287 304 321 328 340 339 333 311 316 37 310 318 318 341 321 315 8 39 11 3 353 348 352 1 3 129 106 129 137 150 162 158 142 151 152 153 159 156 165 170
302 303 298 295 287 289 299 311 321 311 320 324 302 1 337 321 320 315 333 315 316 48 28 20 341 331 335 344 352 111 141 147 156 159 155 146 149 139 141 157 179 165 170 175
295 308 298 294 294 297 289 287 299 334 336 327 341 300 309 319 309 319 316 315 316 317 359 36 18 319 306 279 196 165 163 165 167 159 149 145 128 147 159 174 180 186 184 186
272 274 273 282 300 299 301 305 310 307 302 302 303 303 304 293 294 299 300 300 303 305 321 220 88 271 263 235 200 187 192 176 163 145 148 146 148 159 177 174 185 46 190 169